| time (UTC) | temp F | wind direction | speed MPH | gust MPH | rain 1hr in | rain 24hr in | rain mn in | humidity % | barometer mb |
| 20260504035225 | 54 | 7 | 13.0 | 16.0 | 0.00 | 0.00 | 0.00 | 46 | 1008.5 |
| 20260504034722 | 52 | 5 | 8.0 | 9.0 | 0.00 | 0.00 | 0.00 | 49 | 1008.1 |
| 20260504034219 | 51 | 352 | 6.0 | 7.0 | 0.00 | 0.00 | 0.00 | 51 | 1008.0 |
| 20260504033717 | 52 | 333 | 4.0 | 5.0 | 0.00 | 0.00 | 0.00 | 51 | 1007.7 |
| 20260504033214 | 53 | 331 | 3.0 | 5.0 | 0.00 | 0.00 | 0.00 | 48 | 1007.6 |
| 20260504032711 | 55 | 358 | 5.0 | 6.0 | 0.00 | 0.00 | 0.00 | 44 | 1007.6 |
| 20260504032208 | 56 | 351 | 3.0 | 5.0 | 0.00 | 0.00 | 0.00 | 43 | 1007.6 |
| 20260504031705 | 57 | 356 | 5.0 | 9.0 | 0.00 | 0.00 | 0.00 | 41 | 1007.6 |
| 20260504031202 | 57 | 23 | 5.0 | 7.0 | 0.00 | 0.00 | 0.00 | 40 | 1007.5 |
| 20260504030658 | 58 | 8 | 4.0 | 8.0 | 0.00 | 0.00 | 0.00 | 40 | 1007.3 |
| 20260504030155 | 58 | 62 | 6.0 | 8.0 | 0.00 | 0.00 | 0.00 | 39 | 1007.1 |
| 20260504025652 | 59 | 6 | 6.0 | 9.0 | 0.00 | 0.00 | 0.00 | 38 | 1007.0 |
| 20260504025148 | 59 | 33 | 6.0 | 9.0 | 0.00 | 0.00 | 0.00 | 37 | 1007.1 |
| 20260504024646 | 59 | 15 | 8.0 | 10.0 | 0.00 | 0.00 | 0.00 | 38 | 1006.8 |
| 20260504024142 | 59 | 42 | 4.0 | 9.0 | 0.00 | 0.00 | 0.00 | 37 | 1006.9 |
| 20260504023639 | 60 | 27 | 9.0 | 13.0 | 0.00 | 0.00 | 0.00 | 37 | 1006.8 |
| 20260504023135 | 60 | 13 | 7.0 | 10.0 | 0.00 | 0.00 | 0.00 | 36 | 1006.7 |
| 20260504022632 | 60 | 8 | 5.0 | 10.0 | 0.00 | 0.00 | 0.00 | 37 | 1006.7 |
| 20260504022127 | 61 | 1 | 7.0 | 13.0 | 0.00 | 0.00 | 0.00 | 36 | 1006.8 |
| 20260504021626 | 61 | 74 | 7.0 | 10.0 | 0.00 | 0.00 | 0.00 | 36 | 1006.8 |
| 20260504021122 | 62 | 8 | 9.0 | 11.0 | 0.00 | 0.00 | 0.00 | 35 | 1006.8 |
| 20260504020619 | 62 | 11 | 9.0 | 14.0 | 0.00 | 0.00 | 0.00 | 34 | 1006.7 |
| 20260504020115 | 63 | 16 | 11.0 | 17.0 | 0.00 | 0.00 | 0.00 | 34 | 1006.7 |
| 20260504015612 | 64 | 12 | 11.0 | 21.0 | 0.00 | 0.00 | 0.00 | 33 | 1006.6 |
| 20260504015108 | 64 | 25 | 8.0 | 10.0 | 0.00 | 0.00 | 0.00 | 34 | 1006.4 |
| 20260504014604 | 65 | 36 | 9.0 | 18.0 | 0.00 | 0.00 | 0.00 | 32 | 1006.5 |
| 20260504014101 | 66 | 9 | 13.0 | 20.0 | 0.00 | 0.00 | 0.00 | 31 | 1006.5 |
| 20260504013559 | 66 | 18 | 9.0 | 13.0 | 0.00 | 0.00 | 0.00 | 29 | 1006.5 |
| 20260504013055 | 67 | 23 | 9.0 | 17.0 | 0.00 | 0.00 | 0.00 | 29 | 1006.4 |
| 20260504012553 | 67 | 6 | 8.0 | 15.0 | 0.00 | 0.00 | 0.00 | 29 | 1006.3 |
| 20260504012051 | 68 | 21 | 11.0 | 18.0 | 0.00 | 0.00 | 0.00 | 28 | 1006.5 |
| 20260504011547 | 68 | 353 | 12.0 | 17.0 | 0.00 | 0.00 | 0.00 | 27 | 1006.4 |
| 20260504011043 | 69 | 353 | 14.0 | 21.0 | 0.00 | 0.00 | 0.00 | 26 | 1006.5 |
| 20260504010539 | 69 | 2 | 11.0 | 20.0 | 0.00 | 0.00 | 0.00 | 26 | 1006.2 |
| 20260504010036 | 69 | 2 | 13.0 | 20.0 | 0.00 | 0.00 | 0.00 | 26 | 1006.4 |
| 20260504005532 | 70 | 15 | 11.0 | 15.0 | 0.00 | 0.00 | 0.00 | 26 | 1006.4 |
| 20260504005030 | 71 | 348 | 8.0 | 15.0 | 0.00 | 0.00 | 0.00 | 26 | 1006.2 |
| 20260504004528 | 71 | 332 | 15.0 | 18.0 | 0.00 | 0.00 | 0.00 | 25 | 1006.2 |
| 20260504004024 | 71 | 332 | 10.0 | 14.0 | 0.00 | 0.00 | 0.00 | 25 | 1006.0 |
| 20260504003520 | 72 | 306 | 15.0 | 21.0 | 0.00 | 0.00 | 0.00 | 25 | 1006.4 |
| 20260504003017 | 72 | 320 | 11.0 | 18.0 | 0.00 | 0.00 | 0.00 | 25 | 1006.4 |
| 20260504002514 | 72 | 314 | 13.0 | 16.0 | 0.00 | 0.00 | 0.00 | 23 | 1006.2 |
| 20260504002012 | 72 | 318 | 9.0 | 16.0 | 0.00 | 0.00 | 0.00 | 24 | 1006.2 |
| 20260504001509 | 72 | 326 | 9.0 | 17.0 | 0.00 | 0.00 | 0.00 | 24 | 1006.5 |
| 20260504001005 | 73 | 313 | 11.0 | 16.0 | 0.00 | 0.00 | 0.00 | 24 | 1006.3 |
| 20260504000503 | 72 | 298 | 11.0 | 21.0 | 0.00 | 0.00 | 0.00 | 23 | 1006.6 |
| 20260504000000 | 72 | 357 | 8.0 | 18.0 | 0.00 | 0.00 | 0.00 | 23 | 1006.6 |
| 20260503235458 | 72 | 325 | 13.0 | 18.0 | 0.00 | 0.00 | 0.00 | 23 | 1006.6 |
| 20260503234955 | 72 | 319 | 14.0 | 18.0 | 0.00 | 0.00 | 0.00 | 23 | 1006.8 |
| 20260503234452 | 72 | 312 | 14.0 | 17.0 | 0.00 | 0.00 | 0.00 | 23 | 1006.8 |
| 20260503233950 | 72 | 317 | 14.0 | 20.0 | 0.00 | 0.00 | 0.00 | 24 | 1006.7 |
| 20260503233446 | 72 | 345 | 17.0 | 22.0 | 0.00 | 0.00 | 0.00 | 24 | 1006.6 |
| 20260503232943 | 71 | 289 | 18.0 | 22.0 | 0.00 | 0.00 | 0.00 | 23 | 1006.6 |
| 20260503232440 | 72 | 322 | 17.0 | 20.0 | 0.00 | 0.00 | 0.00 | 23 | 1006.6 |
| 20260503231938 | 72 | 345 | 11.0 | 16.0 | 0.00 | 0.00 | 0.00 | 24 | 1006.6 |
| 20260503231435 | 73 | 307 | 17.0 | 21.0 | 0.00 | 0.00 | 0.00 | 23 | 1006.8 |
| 20260503230931 | 72 | 323 | 16.0 | 23.0 | 0.00 | 0.00 | 0.00 | 23 | 1006.6 |
| 20260503230428 | 72 | 321 | 18.0 | 23.0 | 0.00 | 0.00 | 0.00 | 23 | 1006.8 |
| 20260503225926 | 73 | 291 | 11.0 | 24.0 | 0.00 | 0.00 | 0.00 | 23 | 1006.6 |
| 20260503225422 | 72 | 336 | 13.0 | 23.0 | 0.00 | 0.00 | 0.00 | 23 | 1006.8 |
| 20260503224918 | 73 | 317 | 12.0 | 21.0 | 0.00 | 0.00 | 0.00 | 24 | 1006.9 |
| 20260503224415 | 72 | 301 | 15.0 | 18.0 | 0.00 | 0.00 | 0.00 | 23 | 1006.6 |
| 20260503223913 | 72 | 338 | 11.0 | 15.0 | 0.00 | 0.00 | 0.00 | 24 | 1007.0 |
| 20260503223410 | 72 | 329 | 15.0 | 20.0 | 0.00 | 0.00 | 0.00 | 23 | 1007.0 |
| 20260503222911 | 72 | 310 | 14.0 | 23.0 | 0.00 | 0.00 | 0.00 | 23 | 1006.9 |
| 20260503222409 | 73 | 325 | 17.0 | 20.0 | 0.00 | 0.00 | 0.00 | 23 | 1007.3 |
| 20260503221907 | 72 | 303 | 15.0 | 18.0 | 0.00 | 0.00 | 0.00 | 23 | 1006.8 |
| 20260503221406 | 72 | 315 | 14.0 | 20.0 | 0.00 | 0.00 | 0.00 | 23 | 1007.1 |
| 20260503220901 | 72 | 308 | 14.0 | 27.0 | 0.00 | 0.00 | 0.00 | 23 | 1007.4 |
| 20260503220358 | 73 | 291 | 10.0 | 20.0 | 0.00 | 0.00 | 0.00 | 23 | 1007.3 |
| 20260503215855 | 72 | 284 | 12.0 | 21.0 | 0.00 | 0.00 | 0.00 | 23 | 1007.5 |
| 20260503215352 | 72 | 316 | 12.0 | 21.0 | 0.00 | 0.00 | 0.00 | 24 | 1007.3 |
| 20260503214849 | 72 | 323 | 13.0 | 22.0 | 0.00 | 0.00 | 0.00 | 24 | 1007.5 |
| 20260503214347 | 73 | 296 | 13.0 | 20.0 | 0.00 | 0.00 | 0.00 | 24 | 1007.4 |
| 20260503213844 | 72 | 315 | 15.0 | 20.0 | 0.00 | 0.00 | 0.00 | 24 | 1007.6 |
| 20260503213342 | 72 | 346 | 10.0 | 18.0 | 0.00 | 0.00 | 0.00 | 24 | 1007.6 |
| 20260503212839 | 72 | 305 | 12.0 | 17.0 | 0.00 | 0.00 | 0.00 | 24 | 1007.7 |
| 20260503212336 | 73 | 304 | 13.0 | 16.0 | 0.00 | 0.00 | 0.00 | 23 | 1007.9 |
| 20260503211833 | 72 | 306 | 19.0 | 24.0 | 0.00 | 0.00 | 0.00 | 23 | 1007.9 |
| 20260503211330 | 72 | 280 | 17.0 | 25.0 | 0.00 | 0.00 | 0.00 | 23 | 1008.0 |
| 20260503210825 | 72 | 331 | 12.0 | 21.0 | 0.00 | 0.00 | 0.00 | 23 | 1007.9 |
| 20260503210323 | 71 | 313 | 11.0 | 13.0 | 0.00 | 0.00 | 0.00 | 23 | 1008.1 |
| 20260503205818 | 71 | 299 | 12.0 | 21.0 | 0.00 | 0.00 | 0.00 | 23 | 1008.4 |
| 20260503205314 | 71 | 309 | 8.0 | 14.0 | 0.00 | 0.00 | 0.00 | 23 | 1008.4 |
| 20260503204811 | 71 | 304 | 11.0 | 18.0 | 0.00 | 0.00 | 0.00 | 23 | 1008.4 |
| 20260503204309 | 71 | 325 | 12.0 | 20.0 | 0.00 | 0.00 | 0.00 | 24 | 1008.2 |
| 20260503203806 | 71 | 318 | 14.0 | 20.0 | 0.00 | 0.00 | 0.00 | 24 | 1008.5 |
| 20260503203303 | 71 | 296 | 13.0 | 25.0 | 0.00 | 0.00 | 0.00 | 24 | 1008.2 |
| 20260503202800 | 70 | 321 | 16.0 | 21.0 | 0.00 | 0.00 | 0.00 | 24 | 1008.5 |
| 20260503202258 | 71 | 298 | 16.0 | 26.0 | 0.00 | 0.00 | 0.00 | 23 | 1008.6 |
| 20260503201755 | 70 | 341 | 14.0 | 21.0 | 0.00 | 0.00 | 0.00 | 24 | 1008.6 |
| 20260503201253 | 69 | 288 | 11.0 | 21.0 | 0.00 | 0.00 | 0.00 | 24 | 1008.5 |
| 20260503200750 | 70 | 330 | 17.0 | 21.0 | 0.00 | 0.00 | 0.00 | 24 | 1008.8 |
| 20260503200246 | 71 | 297 | 17.0 | 24.0 | 0.00 | 0.00 | 0.00 | 24 | 1008.5 |
| 20260503195743 | 70 | 289 | 12.0 | 20.0 | 0.00 | 0.00 | 0.00 | 24 | 1008.8 |
| 20260503195239 | 70 | 289 | 14.0 | 20.0 | 0.00 | 0.00 | 0.00 | 24 | 1008.9 |
| 20260503194738 | 69 | 329 | 11.0 | 22.0 | 0.00 | 0.00 | 0.00 | 24 | 1009.0 |
| 20260503194233 | 69 | 284 | 10.0 | 16.0 | 0.00 | 0.00 | 0.00 | 25 | 1009.1 |
| 20260503193729 | 70 | 290 | 13.0 | 24.0 | 0.00 | 0.00 | 0.00 | 25 | 1009.2 |
| 20260503193225 | 69 | 317 | 13.0 | 17.0 | 0.00 | 0.00 | 0.00 | 23 | 1009.2 |
| 20260503192721 | 70 | 326 | 15.0 | 24.0 | 0.00 | 0.00 | 0.00 | 24 | 1009.3 |
| 20260503192216 | 69 | 311 | 11.0 | 18.0 | 0.00 | 0.00 | 0.00 | 25 | 1009.7 |
| 20260503191714 | 68 | 336 | 10.0 | 20.0 | 0.00 | 0.00 | 0.00 | 27 | 1009.7 |
| 20260503191211 | 69 | 10 | 11.0 | 18.0 | 0.00 | 0.00 | 0.00 | 26 | 1009.5 |
| 20260503190707 | 68 | 325 | 6.0 | 14.0 | 0.00 | 0.00 | 0.00 | 27 | 1009.5 |
| 20260503190204 | 69 | 331 | 13.0 | 23.0 | 0.00 | 0.00 | 0.00 | 26 | 1009.5 |
| 20260503185702 | 69 | 302 | 10.0 | 16.0 | 0.00 | 0.00 | 0.00 | 26 | 1009.7 |
| 20260503185156 | 68 | 290 | 11.0 | 17.0 | 0.00 | 0.00 | 0.00 | 26 | 1009.9 |
| 20260503184651 | 68 | 329 | 13.0 | 16.0 | 0.00 | 0.00 | 0.00 | 27 | 1010.1 |
| 20260503184148 | 67 | 301 | 10.0 | 14.0 | 0.00 | 0.00 | 0.00 | 27 | 1010.1 |
| 20260503183644 | 68 | 348 | 8.0 | 16.0 | 0.00 | 0.00 | 0.00 | 28 | 1010.0 |
| 20260503183142 | 68 | 279 | 6.0 | 11.0 | 0.00 | 0.00 | 0.00 | 27 | 1010.2 |
| 20260503182640 | 68 | 341 | 14.0 | 18.0 | 0.00 | 0.00 | 0.00 | 26 | 1010.2 |
| 20260503182139 | 68 | 299 | 10.0 | 14.0 | 0.00 | 0.00 | 0.00 | 27 | 1009.9 |
| 20260503181635 | 67 | 331 | 13.0 | 17.0 | 0.00 | 0.00 | 0.00 | 27 | 1010.4 |
| 20260503181132 | 68 | 313 | 9.0 | 14.0 | 0.00 | 0.00 | 0.00 | 27 | 1010.1 |
| 20260503180628 | 67 | 326 | 6.0 | 11.0 | 0.00 | 0.00 | 0.00 | 30 | 1010.3 |
| 20260503180126 | 67 | 315 | 11.0 | 17.0 | 0.00 | 0.00 | 0.00 | 29 | 1010.4 |
| 20260503175623 | 67 | 330 | 11.0 | 17.0 | 0.00 | 0.00 | 0.00 | 30 | 1010.4 |
| 20260503175120 | 66 | 318 | 7.0 | 13.0 | 0.00 | 0.00 | 0.00 | 31 | 1010.7 |
| 20260503174617 | 66 | 312 | 6.0 | 13.0 | 0.00 | 0.00 | 0.00 | 31 | 1010.7 |
| 20260503174114 | 65 | 332 | 13.0 | 15.0 | 0.00 | 0.00 | 0.00 | 30 | 1010.7 |
| 20260503173609 | 66 | 292 | 9.0 | 14.0 | 0.00 | 0.00 | 0.00 | 30 | 1010.9 |
| 20260503173106 | 66 | 356 | 8.0 | 13.0 | 0.00 | 0.00 | 0.00 | 28 | 1010.9 |
| 20260503172603 | 66 | 312 | 11.0 | 14.0 | 0.00 | 0.00 | 0.00 | 28 | 1010.9 |
| 20260503172100 | 66 | 327 | 11.0 | 15.0 | 0.00 | 0.00 | 0.00 | 28 | 1010.9 |
| 20260503171556 | 66 | 330 | 7.0 | 14.0 | 0.00 | 0.00 | 0.00 | 29 | 1011.1 |
| 20260503171054 | 65 | 335 | 9.0 | 18.0 | 0.00 | 0.00 | 0.00 | 30 | 1011.1 |
| 20260503170550 | 65 | 303 | 9.0 | 15.0 | 0.00 | 0.00 | 0.00 | 30 | 1011.0 |
| 20260503150943 | 60 | 285 | 9.0 | 11.0 | 0.00 | 0.00 | 0.00 | 35 | 1011.2 |
| 20260503150439 | 60 | 307 | 11.0 | 14.0 | 0.00 | 0.00 | 0.00 | 36 | 1011.1 |
| 20260503131332 | 52 | 281 | 9.0 | 11.0 | 0.00 | 0.00 | 0.00 | 63 | 1011.4 |
| 20260503130829 | 51 | 312 | 9.0 | 11.0 | 0.00 | 0.00 | 0.00 | 64 | 1011.7 |
| 20260503130327 | 50 | 317 | 8.0 | 10.0 | 0.00 | 0.00 | 0.00 | 65 | 1011.3 |
| 20260503110721 | 38 | 49 | 1.0 | 1.0 | 0.00 | 0.00 | 0.00 | 84 | 1012.1 |
| 20260503110218 | 37 | 4 | 3.0 | 3.0 | 0.00 | 0.00 | 0.00 | 86 | 1012.0 |
| 20260503100144 | 38 | 339 | 0.0 | 0.0 | 0.00 | 0.00 | 0.00 | 84 | 1012.8 |
| 20260503081533 | 47 | 95 | 2.0 | 2.0 | 0.00 | 0.00 | 0.00 | 66 | 1013.1 |
| 20260503081030 | 46 | 95 | 0.0 | 1.0 | 0.00 | 0.00 | 0.00 | 67 | 1013.4 |
| 20260503080526 | 46 | 97 | 0.0 | 1.0 | 0.00 | 0.00 | 0.00 | 67 | 1013.6 |
| 20260503072500 | 45 | 92 | 1.0 | 2.0 | 0.00 | 0.00 | 0.00 | 68 | 1013.7 |
| 20260503071957 | 43 | 100 | 1.0 | 2.0 | 0.00 | 0.00 | 0.00 | 71 | 1014.0 |
| 20260503071454 | 44 | 105 | 1.0 | 1.0 | 0.00 | 0.00 | 0.00 | 70 | 1013.9 |
| 20260503070950 | 43 | 105 | 0.0 | 0.0 | 0.00 | 0.00 | 0.00 | 71 | 1013.9 |
| 20260503070447 | 45 | 107 | 1.0 | 2.0 | 0.00 | 0.00 | 0.00 | 68 | 1013.9 |
| 20260503054906 | 45 | 95 | 0.0 | 0.0 | 0.00 | 0.00 | 0.00 | 67 | 1014.3 |
| 20260503054402 | 43 | 74 | 1.0 | 1.0 | 0.00 | 0.00 | 0.00 | 71 | 1014.2 |
| 20260503053900 | 46 | 96 | 0.0 | 1.0 | 0.00 | 0.00 | 0.00 | 65 | 1014.2 |
| 20260503053358 | 46 | 90 | 0.0 | 0.0 | 0.00 | 0.00 | 0.00 | 65 | 1014.3 |
| 20260503052854 | 46 | 79 | 0.0 | 1.0 | 0.00 | 0.00 | 0.00 | 66 | 1014.3 |
| 20260503052351 | 47 | 73 | 0.0 | 1.0 | 0.00 | 0.00 | 0.00 | 65 | 1014.4 |
| 20260503051847 | 46 | 65 | 0.0 | 1.0 | 0.00 | 0.00 | 0.00 | 67 | 1014.5 |
| 20260503051344 | 45 | 32 | 1.0 | 1.0 | 0.00 | 0.00 | 0.00 | 70 | 1014.7 |
| 20260503050841 | 45 | 346 | 2.0 | 2.0 | 0.00 | 0.00 | 0.00 | 69 | 1014.6 |
| 20260503050337 | 43 | 24 | 2.0 | 2.0 | 0.00 | 0.00 | 0.00 | 73 | 1014.7 |
| 20260503045835 | 41 | 305 | 1.0 | 2.0 | 0.00 | 0.00 | 0.00 | 77 | 1014.5 |
| 20260503045332 | 45 | 308 | 2.0 | 2.0 | 0.00 | 0.00 | 0.00 | 72 | 1014.5 |
| 20260503044828 | 46 | 14 | 0.0 | 1.0 | 0.00 | 0.00 | 0.00 | 67 | 1014.4 |
| 20260503044325 | 46 | 3 | 1.0 | 1.0 | 0.00 | 0.00 | 0.00 | 69 | 1014.3 |
| 20260503043822 | 44 | 346 | 2.0 | 3.0 | 0.00 | 0.00 | 0.00 | 72 | 1014.4 |
| 20260503043319 | 46 | 35 | 2.0 | 2.0 | 0.00 | 0.00 | 0.00 | 68 | 1014.4 |
| 20260503042815 | 47 | 41 | 1.0 | 2.0 | 0.00 | 0.00 | 0.00 | 66 | 1014.5 |
| 20260503042312 | 49 | 43 | 1.0 | 1.0 | 0.00 | 0.00 | 0.00 | 63 | 1014.4 |
| 20260503041808 | 50 | 43 | 1.0 | 1.0 | 0.00 | 0.00 | 0.00 | 62 | 1014.2 |
| 20260503041306 | 50 | 20 | 0.0 | 1.0 | 0.00 | 0.00 | 0.00 | 61 | 1014.4 |
| 20260503040803 | 48 | 7 | 1.0 | 1.0 | 0.00 | 0.00 | 0.00 | 66 | 1014.4 |
| 20260503040301 | 48 | 351 | 3.0 | 3.0 | 0.00 | 0.00 | 0.00 | 66 | 1014.3 |
| 20260503035757 | 51 | 346 | 4.0 | 5.0 | 0.00 | 0.00 | 0.00 | 64 | 1014.5 |